Weather History for Anderson, SC

Change the Weather History Date:

Wednesday, January 2, 2013

  Actual Average Record
Temperature  
Mean Temperature 52 °F -  
Max Temperature 55 °F 52 °F 75 °F (1952)
Min Temperature 48 °F 34 °F 13 °F (1984)
Degree Days  
Heating Degree Days 14    
Growing Degree Days 2 (Base 50)    
Moisture  
Dew Point 48 °F    
Average Humidity 92    
Maximum Humidity 100    
Minimum Humidity 69    
Precipitation  
Precipitation 0.06 in - - ()
Sea Level Pressure  
Sea Level Pressure 30.00 in    
Wind  
Wind Speed 1 mph (NE)    
Max Wind Speed 7 mph    
Max Gust Speed -    
Visibility 6 miles    
Events Fog , Rain    
Averages and records for this station are not official NWS values.
T = Trace of Precipitation, MM = Missing Value Source: NWS Daily Summary

Daily Weather History Graph

Daily Weather History Graph

Search for Another Location

Airport:

Trip Planner

Search our weather history database for the weather conditions in past years. The results will help you decide how hot, cold, wet, or windy it might be!

Date:

Astronomy

Jan. 02, 2013 Rise Set
Actual Time 7:37 AM EST 5:32 PM EST
Civil Twilight 7:09 AM EST 6:00 PM EST
Nautical Twilight 6:38 AM EST 6:31 PM EST
Astronomical Twilight 6:08 AM EST 7:02 PM EST
Moon 10:48 PM EST (1/2) 10:32 AM EST (1/2)
Length of Visible Light 10h 50m
Length of Day
9h 54m
Waning Gibbous, 75% of the Moon is Illuminated
Jan 2
Waning Gibbous
Jan 4
Last Quarter
Jan 11
New
Jan 18
First Quarter
Jan 26
Full

Hourly Weather History & Observations

Time (EST) Temp. Dew Point Humidity Pressure Visibility Wind Dir Wind Speed Gust Speed Precip Events Conditions
12:51 AM 48.2 °F 48.2 °F 100% 29.94 in 5.0 mi Calm Calm - 0.02 in Rain Light Rain
12:56 AM 48.9 °F 48.9 °F 100% 29.94 in 5.0 mi Calm Calm - 0.02 in Rain Light Rain
1:44 AM 48.2 °F 48.2 °F 100% 29.92 in 1.8 mi ESE 3.5 mph - 0.03 in Rain Light Rain
1:56 AM 48.9 °F 48.9 °F 100% 29.89 in 2.5 mi SE 4.6 mph - 0.03 in Rain Light Rain
2:03 AM 48.2 °F 48.2 °F 100% 29.90 in 5.0 mi ESE 3.5 mph - 0.01 in Rain Light Rain
2:56 AM 48.9 °F 48.9 °F 100% 29.93 in 9.0 mi Calm Calm - 0.01 in   Overcast
3:11 AM 48.2 °F 48.2 °F 100% 29.94 in 6.0 mi Calm Calm - N/A   Overcast
3:28 AM 48.2 °F 48.2 °F 100% 29.93 in 3.0 mi Calm Calm - N/A   Overcast
3:52 AM 48.2 °F 48.2 °F 100% 29.93 in 1.8 mi Calm Calm - N/A   Overcast
3:56 AM 48.9 °F 48.9 °F 100% 29.93 in 1.2 mi Calm Calm - N/A   Overcast
4:11 AM 48.2 °F 48.2 °F 100% 29.94 in 2.5 mi Calm Calm - N/A   Overcast
4:40 AM 50.0 °F 50.0 °F 100% 29.96 in 3.0 mi WNW 3.5 mph - N/A   Overcast
4:49 AM 50.0 °F 50.0 °F 100% 29.94 in 1.8 mi Calm Calm - N/A   Overcast
4:56 AM 50.0 °F 50.0 °F 100% 29.95 in 1.2 mi Calm Calm - N/A   Overcast
5:11 AM 50.0 °F 50.0 °F 100% 29.95 in 0.8 mi Calm Calm - N/A   Mist
5:27 AM 50.0 °F 50.0 °F 100% 29.95 in 0.5 mi Calm Calm - N/A Fog Fog
5:52 AM 48.2 °F 48.2 °F 100% 29.96 in 0.8 mi NW 3.5 mph - N/A   Mist
5:56 AM 48.9 °F 48.9 °F 100% 29.96 in 0.8 mi Calm Calm - N/A   Overcast
6:09 AM 50.0 °F 50.0 °F 100% 29.96 in 1.0 mi Calm Calm - N/A   Overcast
6:23 AM 50.0 °F 50.0 °F 100% 29.97 in 3.0 mi Calm Calm - N/A   Overcast
6:42 AM 48.2 °F 48.2 °F 100% 29.97 in 1.8 mi Calm Calm - N/A   Overcast
6:54 AM 48.2 °F 48.2 °F 100% 29.98 in 0.8 mi Calm Calm - N/A   Overcast
6:56 AM 48.9 °F 48.9 °F 100% 29.98 in 0.8 mi Calm Calm - N/A   Overcast
7:03 AM 50.0 °F 50.0 °F 100% 29.98 in 1.0 mi Calm Calm - N/A   Overcast
7:12 AM 48.2 °F 48.2 °F 100% 29.99 in 0.5 mi NE 3.5 mph - N/A Fog Fog
7:37 AM 50.0 °F 50.0 °F 100% 29.99 in 0.2 mi Calm Calm - N/A Fog Fog
7:56 AM 50.0 °F 50.0 °F 100% 29.99 in 0.2 mi Calm Calm - N/A Fog Fog
8:16 AM 48.2 °F 48.2 °F 100% 29.99 in 0.8 mi East 6.9 mph - N/A   Mostly Cloudy
8:19 AM 48.2 °F 48.2 °F 100% 29.99 in 2.5 mi East 5.8 mph - N/A   Mostly Cloudy
8:22 AM 48.2 °F 48.2 °F 100% 29.99 in 9.0 mi East 6.9 mph - N/A   Scattered Clouds
8:56 AM 48.9 °F 48.0 °F 97% 30.01 in 10.0 mi Calm Calm - N/A   Clear
9:22 AM 50.0 °F 48.2 °F 94% 30.05 in 10.0 mi NW 6.9 mph - N/A   Scattered Clouds
9:30 AM 50.0 °F 48.2 °F 94% 30.05 in 10.0 mi WNW 5.8 mph - N/A   Mostly Cloudy
9:45 AM 51.8 °F 48.2 °F 88% 30.05 in 10.0 mi WNW 3.5 mph - N/A   Mostly Cloudy
9:56 AM 51.1 °F 48.9 °F 92% 30.05 in 10.0 mi Calm Calm - N/A   Mostly Cloudy
10:24 AM 51.8 °F 48.2 °F 88% 30.06 in 10.0 mi Calm Calm - N/A   Overcast
10:56 AM 52.0 °F 48.9 °F 89% 30.06 in 10.0 mi Calm Calm - N/A   Mostly Cloudy
11:56 AM 53.1 °F 48.0 °F 83% 30.04 in 10.0 mi Calm Calm - N/A   Mostly Cloudy
12:56 PM 55.0 °F 46.9 °F 74% 30.03 in 10.0 mi Calm Calm - N/A   Mostly Cloudy
1:14 PM 53.6 °F 46.4 °F 77% 30.03 in - East 3.5 mph - N/A   Mostly Cloudy
1:24 PM 53.6 °F 46.4 °F 77% 30.03 in 10.0 mi ENE 3.5 mph - N/A   Mostly Cloudy
1:56 PM 55.0 °F 46.0 °F 72% 30.01 in 10.0 mi Calm Calm - N/A   Overcast
2:35 PM 55.4 °F 46.4 °F 72% 30.03 in 10.0 mi Calm Calm - N/A   Scattered Clouds
2:56 PM 55.0 °F 46.0 °F 72% 30.01 in 10.0 mi Variable 3.5 mph - N/A   Clear
3:56 PM 55.0 °F 45.0 °F 69% 30.02 in 10.0 mi NNE 3.5 mph - N/A   Partly Cloudy
4:18 PM 53.6 °F 44.6 °F 72% 30.03 in 10.0 mi Calm Calm - N/A   Mostly Cloudy
4:26 PM 53.6 °F 44.6 °F 72% 30.04 in 10.0 mi Calm Calm - N/A   Mostly Cloudy
4:56 PM 53.1 °F 45.0 °F 74% 30.04 in 10.0 mi Calm Calm - N/A   Partly Cloudy
5:56 PM 51.1 °F 46.0 °F 83% 30.06 in 10.0 mi Calm Calm - N/A   Mostly Cloudy
6:56 PM 52.0 °F 45.0 °F 77% 30.06 in 10.0 mi Calm Calm - N/A   Scattered Clouds
7:21 PM 50.0 °F 46.4 °F 87% 30.08 in 10.0 mi NW 3.5 mph - N/A   Mostly Cloudy
7:56 PM 50.0 °F 46.9 °F 89% 30.09 in 10.0 mi Calm Calm - N/A   Overcast
8:56 PM 51.1 °F 46.0 °F 83% 30.11 in 10.0 mi Calm Calm - N/A   Overcast
9:56 PM 50.0 °F 46.0 °F 86% 30.12 in 10.0 mi Calm Calm - N/A   Overcast
10:16 PM 48.2 °F 46.4 °F 93% 30.13 in 10.0 mi Calm Calm - N/A   Overcast
10:56 PM 48.9 °F 46.0 °F 90% 30.11 in 10.0 mi SSW 4.6 mph - N/A   Overcast
11:56 PM 48.0 °F 44.1 °F 86% 30.10 in 10.0 mi Calm Calm - N/A   Overcast